EW1390 Weather Reports


Display with metric or nautical units.
time (UTC)temp
F
wind
direction
speed
MPH
gust
MPH
rain 1hr
in
rain 24hr
in
rain mn
in
humidity
%
barometer
mb
20260509104537 51 276 0.0 0.0 0.00 0.00 0.00 92 1006.8
20260509103031 51 276 0.0 1.0 0.00 0.00 0.00 92 1006.9
20260509101530 51 276 0.0 0.0 0.00 0.00 0.00 91 1006.8
20260509100032 51 276 0.0 0.0 0.00 0.00 0.00 91 1006.8
20260509094525 52 276 0.0 0.0 0.00 0.00 0.00 91 1007.0
20260509093026 52 276 0.0 0.0 0.00 0.00 0.00 91 1007.0
20260509091525 52 276 0.0 0.0 0.00 0.00 0.00 91 1007.1
20260509090027 52 276 0.0 0.0 0.00 0.00 0.00 91 1007.1
20260509084519 52 276 0.0 0.0 0.00 0.00 0.00 90 1007.2
20260509083019 53 276 0.0 0.0 0.00 0.00 0.00 90 1007.2
20260509081532 53 276 0.0 0.0 0.00 0.00 0.00 90 1007.1
20260509080013 53 276 0.0 0.0 0.00 0.00 0.00 90 1007.2
20260509074512 54 276 0.0 0.0 0.00 0.00 0.00 89 1007.3
20260509073112 54 276 0.0 0.0 0.00 0.00 0.00 89 1007.3
20260509071508 54 276 0.0 0.0 0.00 0.00 0.00 88 1007.3
20260509070005 55 276 0.0 0.0 0.00 0.00 0.00 88 1007.2
20260509064505 55 276 0.0 0.0 0.00 0.00 0.00 87 1007.2
20260509063005 56 276 0.0 0.0 0.00 0.00 0.00 87 1007.3
20260509061502 56 276 0.0 0.0 0.00 0.00 0.00 87 1007.3
20260509060002 56 276 0.0 0.0 0.00 0.00 0.00 86 1007.3
20260509054504 57 276 0.0 0.0 0.00 0.00 0.00 86 1007.3
20260509053003 57 276 0.0 0.0 0.00 0.00 0.00 85 1007.3
20260509051502 58 276 0.0 0.0 0.00 0.00 0.00 84 1007.1
20260509050101 58 276 0.0 0.0 0.00 0.00 0.00 84 1007.1
20260509044600 59 276 0.0 3.0 0.00 0.00 0.00 83 1007.0
20260509043102 60 248 1.0 2.0 0.00 0.00 0.00 82 1007.1
20260509041600 60 248 0.0 3.0 0.00 0.00 0.00 81 1006.9
20260509040114 61 248 1.0 3.0 0.00 0.00 0.00 79 1006.8
20260509034629 62 248 0.0 1.0 0.00 0.00 0.00 77 1006.8
20260509033057 63 248 0.0 0.0 0.00 0.00 0.00 75 1006.8
20260509031557 65 248 0.0 0.0 0.00 0.00 0.00 73 1006.7
20260509030105 67 248 0.0 0.0 0.00 0.00 0.00 69 1006.6
20260509024555 69 248 0.0 0.0 0.00 0.00 0.00 65 1006.6
20260509023054 71 248 0.0 0.0 0.00 0.00 0.00 61 1006.4
20260509021556 74 248 0.0 1.0 0.00 0.00 0.00 55 1006.5
20260509020053 76 248 0.0 3.0 0.00 0.00 0.00 49 1006.5
20260509014551 78 309 0.0 3.0 0.00 0.00 0.00 42 1006.5
20260509013104 80 252 0.0 5.0 0.00 0.00 0.00 38 1006.5
20260509011558 80 245 0.0 3.0 0.00 0.00 0.00 38 1006.6
20260509010047 80 238 1.0 6.0 0.00 0.00 0.00 36 1006.6
20260509004546 80 247 1.0 4.0 0.00 0.00 0.00 36 1006.7
20260509003106 80 279 0.0 4.0 0.00 0.00 0.00 35 1006.8
20260509001545 81 264 1.0 4.0 0.00 0.00 0.00 37 1006.9
20260509000052 81 316 1.0 4.0 0.00 0.00 0.00 40 1006.9
20260508234543 81 230 2.0 7.0 0.00 0.00 0.00 43 1006.9
20260508233040 82 277 1.0 4.0 0.00 0.00 0.00 45 1007.0
20260508231545 82 268 0.0 5.0 0.00 0.00 0.00 44 1007.1
20260508230036 81 224 0.0 5.0 0.00 0.00 0.00 44 1007.3
20260508224536 81 337 1.0 6.0 0.00 0.00 0.00 44 1007.7
20260508223031 81 245 3.0 7.0 0.00 0.00 0.00 38 1007.8
20260508221530 81 222 0.0 5.0 0.00 0.00 0.00 39 1007.9
20260508220027 80 244 1.0 4.0 0.00 0.00 0.00 35 1008.1
20260508214525 80 220 1.0 4.0 0.00 0.00 0.00 32 1008.2
20260508213023 80 276 0.0 4.0 0.00 0.00 0.00 43 1008.3
20260508211526 79 157 1.0 5.0 0.00 0.00 0.00 43 1008.5
20260508210019 79 265 1.0 7.0 0.00 0.00 0.00 45 1008.5
20260508204518 79 5 1.0 8.0 0.00 0.00 0.00 42 1008.5
20260508203019 79 198 1.0 4.0 0.00 0.00 0.00 46 1008.6
20260508201615 79 254 2.0 5.0 0.00 0.00 0.00 46 1008.7
20260508200011 78 278 0.0 3.0 0.00 0.00 0.00 50 1008.9
20260508194509 78 225 0.0 4.0 0.00 0.00 0.00 48 1009.0
20260508193009 78 178 1.0 7.0 0.00 0.00 0.00 48 1009.1
20260508191505 77 234 2.0 7.0 0.00 0.00 0.00 49 1009.2
20260508190004 77 88 0.0 4.0 0.00 0.00 0.00 53 1009.2
20260508184503 77 159 1.0 5.0 0.00 0.00 0.00 56 1009.4
20260508183002 76 261 0.0 4.0 0.00 0.00 0.00 53 1009.4
20260508181600 75 167 0.0 4.0 0.00 0.00 0.00 49 1009.6
20260508180055 74 153 0.0 4.0 0.00 0.00 0.00 54 1009.7
20260508174602 73 140 0.0 6.0 0.00 0.00 0.00 59 1009.6
20260508173046 70 251 0.0 3.0 0.00 0.00 0.00 69 1009.5
20260508171542 67 207 0.0 3.0 0.00 0.00 0.00 77 1009.5
20260508170038 62 207 0.0 3.0 0.00 0.00 0.00 90 1009.5
20260508164539 59 202 0.0 0.0 0.00 0.00 0.00 96 1009.6
20260508163046 58 246 0.0 0.0 0.00 0.00 0.00 96 1009.7
20260508161527 57 246 0.0 0.0 0.00 0.00 0.00 96 1009.7
20260508160025 55 246 0.0 0.0 0.00 0.00 0.00 96 1009.7
20260508154522 53 246 0.0 0.0 0.00 0.01 0.00 96 1009.8
20260508153027 52 246 0.0 0.0 0.00 0.01 0.00 95 1009.7
20260508151528 51 246 0.0 0.0 0.00 0.01 0.00 95 1009.7
20260508150026 49 246 0.0 0.0 0.00 0.01 0.00 95 1009.7
20260508144519 48 242 0.0 0.0 0.00 0.01 0.00 94 1009.6
20260508143017 47 242 0.0 0.0 0.00 0.01 0.00 94 1009.6
20260508141516 47 242 0.0 0.0 0.00 0.01 0.00 94 1009.4
20260508140014 47 242 0.0 0.0 0.00 0.01 0.00 94 1009.2
20260508134520 47 242 0.0 0.0 0.00 0.01 0.00 94 1009.1
20260508133012 47 242 0.0 0.0 0.00 0.01 0.00 94 1009.1
20260508131511 47 242 0.0 0.0 0.00 0.01 0.00 94 1009.1
20260508130009 47 242 0.0 0.0 0.00 0.01 0.00 93 1009.0
20260508124507 47 242 0.0 0.0 0.00 0.01 0.00 93 1008.9
20260508123007 47 242 0.0 0.0 0.00 0.01 0.00 93 1008.9
20260508121506 48 242 0.0 0.0 0.00 0.01 0.00 93 1008.8
20260508120003 48 242 0.0 0.0 0.00 0.01 0.00 93 1008.9
20260508114501 48 242 0.0 0.0 0.00 0.01 0.00 93 1008.8
20260508113100 48 242 0.0 0.0 0.00 0.01 0.00 93 1008.8
20260508111558 49 242 0.0 0.0 0.00 0.01 0.00 93 1009.0
20260508110125 49 242 0.0 0.0 0.00 0.01 0.00 93 1008.9